Location: Recife
(8.0585°S, 34.8848°W)
Time: 12:31:23
(UTC-03:00)

Vanguard 2 - Pass Details

Date: 23 April 2026
Orbit: 554 x 2894 km, 32.9° (Epoch: 7 May)

Event Time Altitude Azimuth Distance (km) Brightness Sun altitude
Rises 18:34:30 0° 284° (WNW) 4,068 12.8 -20.4°
Reaches altitude 10° 18:36:57 10° 279° (W) 3,362 12.0 -21.0°
Maximum altitude 18:45:35 50° 205° (SSW) 2,254 9.9 -23.1°
Enters shadow 18:54:55 22° 141° (SE) 4,084 10.8 -25.3°
Drops below altitude 10° 18:59:29 10° 133° (SE) 5,253 - -26.5°
Sets 19:04:26 0° 128° (SE) 6,503 - -27.7°
